If you wish to contribute or participate in the discussions about articles you are invited to join SKYbrary as a registered user

 Actions

Abraham González International Airport

From SKYbrary Wiki

MMCS
Airport
ICAO: MMCS – IATA: CJS
Summary
Name Abraham González International Airport
Region South America and Caribbean
Territory Mexico MX.gif
Location Ciudad Juarez, Chihuahua
Serving Ciudad Juarez
Elevation 1,189.939 m
3,904 ft
3,904 ft1,189.939 m
Type medium airport
Coordinates 31° 38' 10.08" N, 106° 25' 43.20" W
Runways
Designator Length Width Surface ROPS
3/21 2700 m8,858.268 ft
45 m147.638 ft
ASP /
14/32 1750 m5,741.47 ft
30 m98.425 ft
ASP /


METAR
Observation MMCS 220244Z 20006KT 10SM SCT090 BKN230 33/06 A2998 RMK SLP014 52013 921 8/083 DSNT CB SW ISOL SC
Station Ciudad Juarez International
Date/Time 22 July 2019 02:44:00
Wind direction 200°
Wind speed 06 kts
Lowest cloud amount scattered clouds
Temperature 33°C
Dew point 6°C
Humidity 18%
QNH hPa
Weather condition n/a

International airport located in Ciudad Juárez, Chihuahua, Mexico, near the Mexico–United States border opposite El Paso, Texas.

Climatology

Cold Desert climate (Köppen climate classification BWk)

Maps

Terrain

Loading map...

Airport Layout

Loading map...


Accidents & Serious Incidents at or in vicinity of MMCS

None on SKYbrary